Regional Weather Roundup
Issued by NWS

Home | Current Version | Previous Version | Text Only | Print | Product List | Glossary Off
Versions: 1 2 3 4 5 6 7 8 9 10 11 12 13 14 15 16 17 18 19 20 21 22 23 24 25 26 27 28 29 30 31 32 33 34 35 36 37 38 39 40 41 42 43 44 45 46 47 48 49 50

000
ASUS43 KBIS 221710
RWRND

NORTH DAKOTA REGIONAL WEATHER ROUNDUP
NATIONAL WEATHER SERVICE BISMARCK ND
1200 PM CDT TUE APR 22 2014

NOTE: "FAIR" INDICATES FEW OR NO CLOUDS BELOW 12,000 FEET WITH NO
SIGNIFICANT WEATHER AND/OR OBSTRUCTIONS TO VISIBILITY.


NDZ001>003-009>011-017-221800-
NORTHWEST NORTH DAKOTA

CITY           SKY/WX    TMP DP  RH WIND       PRES   REMARKS
WILLISTON      SUNNY     64  28  25 SE22G31   29.87F
MINOT          SUNNY     60  33  36 E15       29.96F
MINOT AFB      SUNNY     58  36  43 SE16      29.96F
$$

NDZ018>021-031>035-040>046-221800-
SOUTHWEST NORTH DAKOTA

CITY           SKY/WX    TMP DP  RH WIND       PRES   REMARKS
BISMARCK       MOSUNNY   65  30  27 SE15      29.97F
DICKINSON      MOSUNNY   63  27  25 SE25G37   29.85F
GARRISON         N/A     61  29  29 SE15      29.95F
HETTINGER ARPT MOSUNNY   60  30  32 SE24G33   29.87F
$$

NDZ004>008-012>016-024-026-027-054-221800-
NORTHEAST NORTH DAKOTA

CITY           SKY/WX    TMP DP  RH WIND       PRES   REMARKS
GRAND FORKS    MOSUNNY   54  36  50 SE7       30.11S
GRND FRKS AFB  SUNNY     55  38  51 SE10      30.10F
DEVILS LAKE    SUNNY     55  34  44 SE9       30.06F
$$

NDZ022-023-025-028>030-036>039-047>053-221800-
SOUTHEAST NORTH DAKOTA

CITY           SKY/WX    TMP DP  RH WIND       PRES   REMARKS
FARGO          PTSUNNY   56  34  43 S5        30.11F
JAMESTOWN      PTSUNNY   60  30  32 S12       30.04F
$$




USA.gov is the U.S. government's official web portal to all federal, state and local government web resources and services.